Regional Weather Roundup
Issued by NWS

Home | Current Version | Previous Version | Graphics & Text | Print | Product List | Glossary Off
Versions: 1 2 3 4 5 6 7 8 9 10 11 12 13 14 15 16 17 18 19 20 21 22 23 24 25 26 27 28 29 30 31 32 33 34 35 36 37 38 39 40 41 42 43 44 45 46 47 48 49 50

000
ASUS43 KTOP 250759
RWRKS

WEATHER ROUNDUP FOR KANSAS
NATIONAL WEATHER SERVICE GOODLAND KS
300 AM CDT TUE JUL 25 2017

NOTE:  "FAIR" INDICATES FEW OR NO CLOUDS BELOW 12,000 FEET WITH NO
SIGNIFICANT WEATHER AND/OR OBSTRUCTIONS TO VISIBILITY.

KSZ001>006-013>018-027>032-041>047-250900-
NORTHWEST KANSAS

CITY           SKY/WX    TMP DP  RH WIND       PRES   REMARKS
GOODLAND       PTCLDY    72  63  73 S14       30.04S
HAYS             N/A     78  64  61 S13       30.01F
HILL CITY      PTCLDY    77  60  55 S9        30.00S
RUSSELL        PTCLDY    75  63  66 S10       29.99F
$$

KSZ061>065-074>080-084>089-250900-
SOUTHWEST KANSAS

CITY           SKY/WX    TMP DP  RH WIND       PRES   REMARKS
DODGE CITY     CLEAR     70  62  76 S7        30.05S
ELKHART          N/A     68  54  61 S8          N/A
GARDEN CITY    CLEAR     73  63  70 SE8       30.05S
GREAT BEND     CLEAR     74  65  73 S8        30.02F
LIBERAL        CLEAR     71  65  81 S6        30.07
$$

KSZ066>073-081>083-090>101-250900-
SOUTHEAST KANSAS

CITY           SKY/WX    TMP DP  RH WIND       PRES   REMARKS
CHANUTE        CLEAR     77  73  87 E8        30.03F
COFFEYVILLE    CLEAR     74  71  91 CALM      30.02F
HUTCHINSON     CLEAR     73  67  81 SE5       30.02F
MEDICINE LODGE   N/A     76  66  71 SE5       30.02F
NEWTON         CLEAR     74  69  85 S8        30.04F
PARSONS        CLEAR     72  70  93 CALM      30.04S
WICHITA INTL   CLEAR     76  70  82 S9        30.02F
WICHITA JABRA  CLEAR     75  69  81 S7        30.03S
WINFIELD       CLEAR     75  69  81 SE5       30.04F
$$

KSZ007>012-019>026-033>040-048>060-102>105-250900-
NORTHEAST KANSAS

CITY           SKY/WX    TMP DP  RH WIND       PRES   REMARKS
CONCORDIA      CLEAR     77  70  79 S14       29.98F
EMPORIA        CLEAR     75  73  93 E7        30.02F
LAWRENCE       CLEAR     71  70  96 E5        30.03F
MANHATTAN      CLEAR     78  74  87 E3        29.99F
OLATHE IND     CLEAR     73  67  81 E6        30.04F
OLATHE EXE     CLEAR     72  67  84 SE6       30.05S
SALINA         CLEAR     76  68  76 S6        29.99F
TOPEKA BILLARD CLEAR     75  70  84 SE5       30.02F
TOPEKA FORBES  CLEAR     74  70  87 SE6       30.03F
$$




USA.gov is the U.S. government's official web portal to all federal, state and local government web resources and services.